Location: Shepherdstown, WV
(39.4326°N, 77.8042°W)
Time: 15:33:56
(UTC-04:00)

Tiros 1 despin weight - Pass Details

Date: 06 August 2021
Orbit: 593 x 641 km, 48.2° (Epoch: 18 September)

Event Time Altitude Azimuth Distance (km) Brightness Sun altitude
Rises 19:50:11 0° 286° (WNW) 2,938 ? 4.2°
Reaches altitude 10° 19:53:25 10° 263° (W) 2,021 ? 3.6°
Maximum altitude 19:56:01 15° 229° (SW) 1,711 ? 3.1°
Drops below altitude 10° 19:58:36 10° 195° (SSW) 2,003 ? 2.6°
Sets 20:01:47 0° 172° (S) 2,897 ? 2.1°
